This demonstration page uses our WeatherBlox Daily Observations layout. Learn more.

Left ArrowRight Arrow

Hourly Observations for June 3, 2021

Temp ( °F °C ) Dew Point ( °F °C ) Humidity (%) Winds ( mph kmh ) Pressure ( in mb ) Visibility ( mi km ) Precip ( " mm )
12:51 am 00:51 Clear 82 27.8 28 -2.2 14 14 N 7 11 29.68 1005 10 16 N/A
1:51 am 01:51 Clear 79 26.1 28 -2.2 15 15 N 8 13 29.69 1005 10 16 N/A
2:51 am 02:51 Clear 73 22.8 27 -2.8 18 18 N N/A 29.72 1006 10 16 N/A
3:51 am 03:51 Clear 76 24.4 28 -2.2 17 17 NNW 9 15 29.71 1006 10 16 N/A
4:51 am 04:51 Clear 72 22.2 27 -2.8 19 19 N N/A 29.73 1007 10 16 N/A
5:51 am 05:51 Sunny 72 22.2 27 -2.8 19 19 SE 3 6 29.77 1008 10 16 N/A
6:51 am 06:51 Sunny 78 25.6 28 -2.2 16 16 N N/A 29.78 1008 10 16 N/A
7:51 am 07:51 Sunny 81 27.2 31 -0.6 16 16 S 6 9 29.79 1009 10 16 N/A
8:51 am 08:51 Sunny 86 30 33 0.6 15 15 NW 13 20 29.79 1009 10 16 N/A
9:51 am 09:51 Sunny 90 32.2 33 0.6 13 13 NW 14 22 29.78 1008 10 16 N/A
10:51 am 10:51 Sunny 92 33.3 33 0.6 12 12 NW 10 17 29.76 1008 10 16 N/A
11:51 am 11:51 Sunny 95 35 33 0.6 11 11 WNW 14 22 29.73 1007 10 16 N/A
12:51 pm 12:51 Sunny 97 36.1 32 undefined 10 10 NW 13 20 29.70 1006 10 16 N/A
1:51 pm 13:51 Sunny 99 37.2 32 undefined 9 9 W 17 28 29.67 1005 10 16 N/A
2:51 pm 14:51 Partly Cloudy 101 38.3 31 -0.6 8 8 NW 20 31 29.65 1004 10 16 N/A
3:51 pm 15:51 Partly Cloudy 100 37.8 30 -1.1 8 8 WNW 18 30 29.62 1003 10 16 N/A
4:51 pm 16:51 Partly Cloudy 99 37.2 29 -1.7 8 8 WNW 20 31 29.62 1003 10 16 N/A
5:51 pm 17:51 Sunny 95 35 29 -1.7 9 9 WNW 20 31 29.63 1004 10 16 N/A
6:51 pm 18:51 Sunny 94 34.4 29 -1.7 10 10 WNW 17 28 29.64 1004 10 16 N/A
7:51 pm 19:51 Mostly Clear 91 32.8 29 -1.7 11 11 WNW 10 17 29.66 1005 10 16 N/A
8:51 pm 20:51 Clear 89 31.7 29 -1.7 11 11 N 5 7 29.71 1006 10 16 N/A
9:51 pm 21:51 Clear 86 30 29 -1.7 13 13 WNW 6 9 29.73 1007 10 16 N/A
10:51 pm 22:51 Clear 85 29.4 29 -1.7 13 13 NNE 6 9 29.74 1007 10 16 N/A
11:51 pm 23:51 Clear 83 28.3 30 -1.1 15 15 ENE 6 9 29.73 1007 10 16 N/A

Powered by AerisWeather